Location: Rometta
(44.2000°N, 10.0500°E)
Time: 17:30:18
(UTC+00:00)

X-37B - Pass Details

Date: 20 January 2021
Orbit: 383 x 391 km, 45.0° (Epoch: 27 February)

Event Time Altitude Azimuth Distance (km) Brightness Sun altitude
Rises 19:05:26 0° 262° (W) 2,274 5.6 -30.5°
Reaches altitude 10° 19:07:31 10° 263° (W) 1,420 4.3 -30.9°
Enters shadow 19:07:36 11° 263° (W) 1,385 4.2 -30.9°
